



------------------------------

Message: 4
Date: Sun, 30 Oct 2011 19:00:17 +0100
From: "i8cvs" <domenico.i8cvs@xxx.xx>
To: "Nigel A. Gunn, W8IFF/G8IFF" <nigel@xxxxx.xxx>,	"Amsat - BBs"
<amsat-bb@xxxxx.xxx>
Subject: [amsat-bb] Re: New Launch
Message-ID: <002e01cc972d$c8aff900$0401a8c0@xxxxxx>
Content-Type: text/plain;	charset="iso-8859-1"

Hi Nigel, W8IFF

The inclination is not the same for all so that those OBJECTS seems to
belong to three different launces.

73" de

i8CVS Domenico

----- Original Message -----
From: "Nigel A. Gunn, W8IFF/G8IFF" <nigel@xxxxx.xxx>
To: <amsat-bb@xxxxx.xxx>
Sent: Sunday, October 30, 2011 5:42 PM
Subject: [amsat-bb] New Launch


> Who launched these?
>
> OBJECT A
> 1 37849U 11061A   11302.66421759 +.00000178 +00000-0 +10000-3 0 00099
> 2 37849 098.7116 238.9909 0001984 118.3667 333.6358 14.22213241000181
> OBJECT B
> 1 37850U 11061B   11302.62545336 +.00000480 +00000-0 +51357-4 0 00069
> 2 37850 101.6952 233.0228 0253352 289.9995 191.7441 14.77439893000169
> OBJECT C
> 1 37851U 11061C   11302.94063822 +.00148715 +00000-0 +11864-1 0 00048
> 2 37851 101.7071 233.4846 0255164 289.2247 068.1438 14.77565457000225
> OBJECT D
> 1 37852U 11061D   11302.94064686 +.00001317 +00000-0 +11875-3 0 00172
> 2 37852 101.7026 233.4847 0255574 288.8425 068.5226 14.77447189000225
> OBJECT E
> 1 37853U 11061E   11302.94060934 +.00035908 +00000-0 +29140-2 0 00036
> 2 37853 101.6965 233.4869 0254859 289.2129 068.1595 14.77516832000229
> OBJECT F
> 1 37854U 11061F   11303.54982327  .00014649  00000-0  11859-2 0    30
> 2 37854 101.6986 234.3636 0256120 286.9239 070.4027 14.77691305   296
> OBJECT G
> 1 37855U 11061G   11302.87272701  .00005061  00000-0  41578-3 0    34
> 2 37855 101.7081 233.4066 0257546 289.0631 068.2617 14.77654712   194
> OBJECT H
> 1 37856U 11061H   11303.53330434  .00817553  77249-5  81830-3 0    44
> 2 37856 107.3170 237.6855 0390613 329.7694 028.1472 15.39999395   318
>
>
> _______________________________________________
> Sent via AMSAT-BB@xxxxx.xxx. Opinions expressed are those of the author.
> Not an AMSAT-NA member? Join now to support the amateur satellite program!
> Subscription settings: http://amsat.org/mailman/listinfo/amsat-bb



------------------------------

Message: 5
Date: Mon, 31 Oct 2011 07:13:38 +1300
From: Kevin Gordon <kgordon@xxxxxxxx.xxx.xx>
To: amsat-bb@xxxxx.xxx
Subject: [amsat-bb] Re: Charge for Satellite Tracking?
Message-ID: <O0Q31.20073Z99@xxxxxx.xxx>
Content-Type: text/plain; charset=us-ascii

Thank you Domenico.
You understood my email exactly. Today Universities are commerical.
Universities and other Commerical organisations need world wide reporting
services and data collection ("tracking") of satellites.

Only with regard to satellites should Amateur Radio (i.e. AMSAT) change its
traditional stance ("We are NOT a commercial entity and exist because of our
traditional support of emergency related situations and our experimental
nature").

Free ambulance services request a donation. I wish to suggest we request a
donation "to our amateur radio satellite fund in lieu of tracking services".

73
Kevin zl1bgk.

-----Original Message-----
From: i8cvs [mailto:domenico.i8cvs@xxx.xxx
Sent: Sunday, 30 October 2011 10:10 p.m.
To: Kevin Gordon; Amsat - BBs
Subject: Re: [amsat-bb] Charge for Satellite Tracking?

Hi Kevin, ZL1BGK

You are absolutely correct ! I agree with you because if  we as Amateur
Satellite users will stop to collect telemetry for satellites that does not
provide Amateur Radio Services,then the Universities and Commercial
organizations will cease to build thousands of Microsats and Nanosats only
for their own use.

Unfortunately actually we work as pickers up of tennis-ball at no cost but
investing a lot of money for our equipments.

73" de

i8CVS Domenico

----- Original Message -----
From: "Kevin Gordon" <kgordon@xxxxxxxx.xxx.xx>
To: <amsat-bb@xxxxx.xxx>
Sent: Sunday, October 30, 2011 2:29 AM
Subject: [amsat-bb] Charge for Satellite Tracking?

> If a satellite does not provide amateur radio services, why not charge
> for satellite tracking?
>
> We could at least ask for a fixed amount per satellite as a donation
> to our amateur radio satellite fund in lieu of tracking services.
>
> Thousands of satellites will be placed in orbit in the coming years.
> We must lay claim to our share of orbit space by placing satellites in
orbit.
>
> Just a thought!
>
> Kevin zl1bgk
>





------------------------------

Message: 6
Date: Sun, 30 Oct 2011 14:18:48 -0400
From: Carl Rimmer W8KRF <w8krf@xxxxx.xxx>
To: amsat-bb@xxxxx.xxx
Subject: [amsat-bb] Keps! new cubesats...
Message-ID: <4EAD9508.6070207@xxxxx.xxx>
Content-Type: text/plain; charset=ISO-8859-1; format=flowed

None of these are RAX-2.  At least, not if the RAX-2 website is right. 
There are people tracking RAX-2, so would you please share the keps you are
using?

Thanks,

==========================================================================
Message: 4
Date: Sat, 29 Oct 2011 19:59:23 -0400
Fro302.87289146  .00054233  00000-0  43824-2 0    22
2 37853 101.6952 233.3891 0255073 289.4018 067.9690 14.77521204   207
